• In Latvia
  • List of Countries
  • For 7 days
  • Water Temperature
  • Satellite Maps
  • Weather Map
  • Weather Widgets
  • user-avatar
    Login

    Hourly Weather Prutz

    Today, 17 October, Tuesday

    Time Temperature Precipitation Wind Pressure Humidity
    00:00 +9°C° 0 mm 1 mps 640 mmHg 51%
    01:00 +9°C° 0 mm 1 mps 640 mmHg 47%
    02:00 +9°C° 0 mm 1 mps 640 mmHg 47%
    03:00 +8°C° 0 mm 1 mps 640 mmHg 47%
    04:00 +8°C° 0 mm 1 mps 639 mmHg 48%
    05:00 +8°C° 0 mm 1 mps 639 mmHg 47%
    06:00 +8°C° 0 mm 1 mps 639 mmHg 46%
    07:00 +8°C° 0 mm 1 mps 640 mmHg 51%
    08:00 +11°C° 0 mm 1 mps 640 mmHg 45%
    09:00 +14°C° 0 mm 1 mps 641 mmHg 40%
    10:00 +18°C° 0 mm 1 mps 642 mmHg 34%
    11:00 +19°C° 0 mm 1 mps 642 mmHg 32%
    12:00 +20°C° 0 mm 1 mps 642 mmHg 31%
    13:00 +20°C° 0 mm 1 mps 642 mmHg 29%
    14:00 +19°C° 0 mm 1 mps 641 mmHg 36%
    15:00 +18°C° 0 mm 1 mps 640 mmHg 42%
    16:00 +16°C° 0 mm 1 mps 640 mmHg 49%
    17:00 +14°C° 0 mm 1 mps 639 mmHg 52%
    18:00 +12°C° 0 mm 2 mps 638 mmHg 55%
    19:00 +9°C° 0 mm 2 mps 637 mmHg 57%
    20:00 +8°C° 0 mm 2 mps 637 mmHg 56%
    21:00 +8°C° 0 mm 2 mps 637 mmHg 55%
    22:00 +7°C° 0 mm 2 mps 637 mmHg 54%
    23:00 +7°C° 0 mm 2 mps 636 mmHg 54%

    Tomorrow, 18 October, Wednesday

    Time Temperature Precipitation Wind Pressure Humidity
    00:00 +7°C° 0 mm 2 mps 636 mmHg 53%
    01:00 +7°C° 0 mm 2 mps 636 mmHg 53%
    02:00 +7°C° 0 mm 2 mps 636 mmHg 51%
    03:00 +6°C° 0 mm 2 mps 635 mmHg 49%
    04:00 +6°C° 0 mm 2 mps 635 mmHg 48%
    05:00 +6°C° 0 mm 2 mps 635 mmHg 46%
    06:00 +6°C° 0 mm 2 mps 634 mmHg 45%
    07:00 +7°C° 0 mm 1 mps 634 mmHg 44%
    08:00 +9°C° 0 mm 1 mps 635 mmHg 40%
    09:00 +12°C° 0 mm 1 mps 636 mmHg 37%
    10:00 +15°C° 0 mm 1 mps 637 mmHg 33%
    11:00 +15°C° 0 mm 1 mps 637 mmHg 32%
    12:00 +16°C° 0 mm 1 mps 636 mmHg 32%
    13:00 +16°C° 0 mm 2 mps 636 mmHg 31%
    14:00 +16°C° 0 mm 2 mps 636 mmHg 37%
    15:00 +15°C° 0 mm 1 mps 635 mmHg 42%
    16:00 +14°C° 0 mm 1 mps 635 mmHg 48%
    17:00 +12°C° 0 mm 1 mps 634 mmHg 55%
    18:00 +10°C° 0 mm 1 mps 634 mmHg 63%
    19:00 +7°C° 0 mm 1 mps 633 mmHg 71%
    20:00 +7°C° 0 mm 1 mps 633 mmHg 70%
    21:00 +6°C° 0 mm 2 mps 633 mmHg 69%
    22:00 +6°C° 0 mm 2 mps 633 mmHg 68%
    23:00 +5°C° 0 mm 2 mps 633 mmHg 68%

    Day after tomorrow, 19 October, Thursday

    Time Temperature Precipitation Wind Pressure Humidity
    00:00 +5°C° 0 mm 2 mps 633 mmHg 67%
    01:00 +5°C° 0 mm 2 mps 633 mmHg 66%
    02:00 +5°C° 0 mm 2 mps 633 mmHg 64%
    03:00 +5°C° 0 mm 2 mps 633 mmHg 62%
    04:00 +4°C° 0 mm 2 mps 633 mmHg 60%
    05:00 +4°C° 0 mm 2 mps 633 mmHg 58%
    06:00 +4°C° 0 mm 2 mps 633 mmHg 56%
    07:00 +4°C° 0 mm 2 mps 632 mmHg 54%
    08:00 +8°C° 0 mm 1 mps 633 mmHg 48%
    09:00 +11°C° 0 mm 1 mps 634 mmHg 41%
    10:00 +14°C° 0 mm 1 mps 635 mmHg 35%
    11:00 +14°C° 0 mm 1 mps 635 mmHg 34%
    12:00 +15°C° 0 mm 1 mps 635 mmHg 32%
    13:00 +16°C° 0 mm 1 mps 636 mmHg 31%
    14:00 +15°C° 0 mm 1 mps 635 mmHg 38%
    15:00 +15°C° 0 mm 1 mps 635 mmHg 45%
    16:00 +14°C° 0 mm 1 mps 634 mmHg 52%
    17:00 +12°C° 0 mm 1 mps 634 mmHg 58%
    18:00 +10°C° 0 mm 1 mps 634 mmHg 64%
    19:00 +8°C° 0 mm 1 mps 633 mmHg 69%
    20:00 +8°C° 0 mm 1 mps 633 mmHg 69%
    21:00 +8°C° 0 mm 1 mps 634 mmHg 69%
    22:00 +7°C° 0 mm 2 mps 634 mmHg 69%
    23:00 +7°C° 0 mm 2 mps 634 mmHg 70%

    20 October, Friday

    Time Temperature Precipitation Wind Pressure Humidity
    00:00 +7°C° 0 mm 2 mps 634 mmHg 71%
    01:00 +6°C° 0 mm 2 mps 634 mmHg 72%
    02:00 +6°C° 0 mm 2 mps 634 mmHg 73%
    03:00 +6°C° 0 mm 2 mps 634 mmHg 74%
    04:00 +6°C° 0 mm 1 mps 634 mmHg 75%
    05:00 +6°C° 0 mm 1 mps 634 mmHg 75%
    06:00 +6°C° 0 mm 1 mps 634 mmHg 74%
    07:00 +6°C° 0 mm 1 mps 634 mmHg 74%
    08:00 +9°C° 0 mm 1 mps 635 mmHg 65%
    09:00 +11°C° 0 mm 1 mps 636 mmHg 57%
    10:00 +13°C° 0 mm 0 mps 637 mmHg 48%
    11:00 +14°C° 0 mm 1 mps 637 mmHg 46%
    12:00 +15°C° 0 mm 1 mps 637 mmHg 44%
    13:00 +16°C° 0 mm 1 mps 637 mmHg 43%
    14:00 +15°C° 0 mm 1 mps 637 mmHg 47%
    15:00 +15°C° 0 mm 1 mps 637 mmHg 51%
    16:00 +14°C° 0 mm 1 mps 637 mmHg 55%
    17:00 +12°C° 0 mm 1 mps 636 mmHg 62%
    18:00 +10°C° 0 mm 1 mps 636 mmHg 70%
    19:00 +7°C° 0 mm 1 mps 635 mmHg 77%
    20:00 +7°C° 0 mm 1 mps 635 mmHg 75%
    21:00 +7°C° 0 mm 1 mps 635 mmHg 73%
    22:00 +7°C° 0 mm 1 mps 636 mmHg 71%
    23:00 +6°C° 0 mm 2 mps 636 mmHg 70%

    21 October, Saturday

    Time Temperature Precipitation Wind Pressure Humidity
    00:00 +6°C° 0 mm 2 mps 635 mmHg 69%
    01:00 +6°C° 0 mm 2 mps 635 mmHg 67%
    02:00 +6°C° 0 mm 2 mps 635 mmHg 66%
    03:00 +6°C° 0 mm 2 mps 635 mmHg 65%
    04:00 +6°C° 0 mm 2 mps 635 mmHg 64%
    05:00 +6°C° 0 mm 2 mps 635 mmHg 62%
    06:00 +5°C° 0 mm 2 mps 635 mmHg 61%
    07:00 +6°C° 0 mm 1 mps 635 mmHg 59%
    08:00 +9°C° 0 mm 1 mps 636 mmHg 52%
    09:00 +12°C° 0 mm 1 mps 636 mmHg 46%
    10:00 +15°C° 0 mm 1 mps 637 mmHg 39%
    11:00 +15°C° 0 mm 1 mps 637 mmHg 38%
    12:00 +16°C° 0 mm 1 mps 637 mmHg 36%
    13:00 +18°C° 0 mm 1 mps 637 mmHg 35%
    14:00 +16°C° 0 mm 1 mps 637 mmHg 42%
    15:00 +15°C° 0 mm 1 mps 637 mmHg 48%
    16:00 +14°C° 0 mm 1 mps 636 mmHg 55%
    17:00 +12°C° 0 mm 1 mps 636 mmHg 65%
    18:00 +10°C° 0 mm 1 mps 635 mmHg 76%
    19:00 +7°C° 0 mm 1 mps 635 mmHg 86%
    20:00 +7°C° 0 mm 1 mps 635 mmHg 87%
    21:00 +6°C° 0 mm 0 mps 635 mmHg 89%
    22:00 +6°C° 0 mm 0 mps 635 mmHg 90%
    23:00 +6°C° 0.2 mm 0 mps 635 mmHg 91%

    22 October, Sunday

    Time Temperature Precipitation Wind Pressure Humidity
    00:00 +7°C° 0.2 mm 1 mps 635 mmHg 93%
    01:00 +7°C° 0.2 mm 1 mps 635 mmHg 94%
    02:00 +7°C° 1.2 mm 1 mps 634 mmHg 94%
    03:00 +7°C° 1.2 mm 1 mps 634 mmHg 95%
    04:00 +6°C° 1.2 mm 1 mps 634 mmHg 95%
    05:00 +6°C° 1.9 mm 1 mps 634 mmHg 95%
    06:00 +6°C° 1.9 mm 1 mps 634 mmHg 96%
    07:00 +5°C° 1.9 mm 2 mps 634 mmHg 96%
    08:00 +4°C° 1.9 mm 2 mps 634 mmHg 96%
    09:00 +4°C° 1.9 mm 2 mps 634 mmHg 96%
    10:00 +4°C° 1.9 mm 2 mps 634 mmHg 95%
    11:00 +4°C° 1.9 mm 2 mps 634 mmHg 95%
    12:00 +4°C° 1.9 mm 2 mps 634 mmHg 95%
    13:00 +2°C° 1.9 mm 3 mps 634 mmHg 95%
    14:00 +2°C° 1 mm 3 mps 634 mmHg 95%
    15:00 +2°C° 1 mm 3 mps 634 mmHg 94%
    16:00 +1°C° 1 mm 3 mps 634 mmHg 93%
    17:00 +1°C° 0.2 mm 3 mps 634 mmHg 94%
    18:00 0°C° 0.2 mm 3 mps 634 mmHg 94%
    19:00 +1°C° 0.2 mm 2 mps 634 mmHg 95%
    20:00 -1°C° 0 mm 2 mps 634 mmHg 95%
    21:00 -2°C° 0 mm 2 mps 634 mmHg 95%
    22:00 -3°C° 0 mm 2 mps 634 mmHg 95%
    23:00 -3°C° 0.1 mm 2 mps 635 mmHg 95%
    Show more